This is the latest recevied weather packets stored in our database for station/object OK5TVR-5. If no packets are shown the sender has not sent any weather packets the latest 10 day(s).
| Time | Temp. | Humidity | Pressure | Rain* | Wind** | Luminosity | Snow |
|---|---|---|---|---|---|---|---|
| 1777549997 | 17.22° C | 27% | 1022.1 hPa | 0 mm | - | 346 W/m² | - |
| 1777549997 | 17.22° C | 27% | 1022.1 hPa | 0 mm | - | 346 W/m² | - |
| 1777549162 | 16.67° C | 23% | 1022.2 hPa | 0 mm | - | 372 W/m² | - |
| 1777547361 | 16.11° C | 28% | 1023.3 hPa | 0 mm | - | 383 W/m² | - |
| 1777547360 | 16.11° C | 28% | 1023.3 hPa | 0 mm | - | 383 W/m² | - |
| 1777546459 | 15° C | 28% | 1023.4 hPa | 0 mm | - | 431 W/m² | - |
| 1777546458 | 15° C | 28% | 1023.4 hPa | 0 mm | - | 431 W/m² | - |
| 1777545559 | 15° C | 24% | 1023.4 hPa | 0 mm | - | 431 W/m² | - |
| 1777545559 | 15° C | 24% | 1023.4 hPa | 0 mm | - | 431 W/m² | - |
| 1777544657 | 15° C | 24% | 1023.5 hPa | 0 mm | - | 430 W/m² | - |
| 1777543757 | 13.89° C | 28% | 1023.6 hPa | 0 mm | - | 401 W/m² | - |
| 1777542855 | 14.44° C | 27% | 1023.5 hPa | 0 mm | - | 380 W/m² | - |
| 1777541952 | 14.44° C | 28% | 1023.5 hPa | 0 mm | - | 391 W/m² | - |
| 1777541952 | 14.44° C | 28% | 1023.5 hPa | 0 mm | - | 391 W/m² | - |
| 1777541051 | 12.78° C | 28% | 1023.7 hPa | 0 mm | - | 360 W/m² | - |
| 1777541051 | 12.78° C | 28% | 1023.7 hPa | 0 mm | - | 360 W/m² | - |
| 1777540149 | 13.33° C | 30% | 1023.7 hPa | 0 mm | - | 380 W/m² | - |
| 1777539249 | 12.78° C | 29% | 1024.7 hPa | 0 mm | - | 360 W/m² | - |
| 1777539248 | 12.78° C | 29% | 1024.7 hPa | 0 mm | - | 360 W/m² | - |
| 1777538348 | 12.78° C | 33% | 1024.7 hPa | 0 mm | - | 327 W/m² | - |
| 1777538348 | 12.78° C | 33% | 1024.7 hPa | 0 mm | - | 327 W/m² | - |
| 1777537449 | 11.11° C | 31% | 1025 hPa | 0 mm | - | 298 W/m² | - |
| 1777536548 | 12.22° C | 32% | 1024.8 hPa | 0 mm | - | 268 W/m² | - |
| 1777535646 | 12.78° C | 31% | 1024.7 hPa | 0 mm | - | 235 W/m² | - |
| 1777535646 | 12.78° C | 31% | 1024.7 hPa | 0 mm | - | 235 W/m² | - |
* Rain latest hour (hover to see other rain measurements)
** Current wind speed in m/s (hover to see current wind gust speed)